Time,TemperatureF,DewpointF,PressureIn,WindDirection,WindDirectionDegrees,WindSpeedMPH,WindSpeedGustMPH,Humidity,HourlyPrecipIn,Conditions,Clouds,dailyrainin,SoftwareType,DateUTC
2013-09-27 00:01:00,52.8,52.0,30.11,NNW,337,0.0,1.0,97,0.00,,,0.00,Rainwise IP-100,2013-09-27 04:01:00,
2013-09-27 00:06:00,52.8,52.0,30.11,NNW,337,1.2,1.2,97,0.00,,,0.00,Rainwise IP-100,2013-09-27 04:06:00,
2013-09-27 00:11:00,52.9,52.0,30.11,NNW,337,1.9,2.0,97,0.00,,,0.00,Rainwise IP-100,2013-09-27 04:11:00,
2013-09-27 00:16:00,53.0,51.0,30.11,NNW,337,0.0,2.0,96,0.00,,,0.00,Rainwise IP-100,2013-09-27 04:16:00,
2013-09-27 00:21:00,53.0,51.0,30.11,NNW,337,0.0,2.0,96,0.00,,,0.00,Rainwise IP-100,2013-09-27 04:21:00,
2013-09-27 00:26:00,53.1,51.0,30.11,NNW,337,2.3,3.0,96,0.00,,,0.00,Rainwise IP-100,2013-09-27 04:26:00,
2013-09-27 00:31:00,53.2,51.0,30.11,NNW,337,2.1,4.0,95,0.00,,,0.00,Rainwise IP-100,2013-09-27 04:31:00,
2013-09-27 00:36:00,53.3,51.0,30.11,NNW,337,2.1,3.0,95,0.00,,,0.00,Rainwise IP-100,2013-09-27 04:36:00,
2013-09-27 00:41:00,53.4,52.0,30.11,North,360,1.6,3.0,94,0.00,,,0.00,Rainwise IP-100,2013-09-27 04:41:00,
2013-09-27 00:46:00,53.5,52.0,30.11,North,360,0.0,1.0,94,0.00,,,0.00,Rainwise IP-100,2013-09-27 04:46:00,
2013-09-27 00:51:00,53.5,52.0,30.11,North,360,0.0,2.0,94,0.00,,,0.00,Rainwise IP-100,2013-09-27 04:51:00,
2013-09-27 00:56:00,53.4,52.0,30.11,North,360,1.6,2.0,94,0.00,,,0.00,Rainwise IP-100,2013-09-27 04:56:00,
2013-09-27 01:01:00,53.3,51.0,30.12,NNW,337,2.1,4.0,94,0.00,,,0.00,Rainwise IP-100,2013-09-27 05:01:00,
2013-09-27 01:06:00,53.3,51.0,30.12,NNW,337,0.0,5.0,94,0.00,,,0.00,Rainwise IP-100,2013-09-27 05:06:00,
2013-09-27 01:11:00,53.5,52.0,30.12,NNW,337,2.6,4.0,94,0.00,,,0.00,Rainwise IP-100,2013-09-27 05:11:00,
2013-09-27 01:16:00,53.5,52.0,30.12,NNW,337,0.0,4.0,94,0.00,,,0.00,Rainwise IP-100,2013-09-27 05:16:00,
2013-09-27 01:21:00,53.5,52.0,30.12,North,360,0.0,4.0,94,0.00,,,0.00,Rainwise IP-100,2013-09-27 05:21:00,
2013-09-27 01:26:00,53.6,51.0,30.11,North,360,0.0,3.0,93,0.00,,,0.00,Rainwise IP-100,2013-09-27 05:26:00,
2013-09-27 01:31:00,53.7,51.0,30.12,NNW,337,0.0,4.0,93,0.00,,,0.00,Rainwise IP-100,2013-09-27 05:31:00,
2013-09-27 01:36:00,53.8,51.0,30.12,NNW,337,0.0,2.0,93,0.00,,,0.00,Rainwise IP-100,2013-09-27 05:36:00,
2013-09-27 01:41:00,53.9,52.0,30.12,NNW,337,0.0,5.0,93,0.00,,,0.00,Rainwise IP-100,2013-09-27 05:41:00,
2013-09-27 01:46:00,53.9,52.0,30.12,NNW,337,0.0,3.0,93,0.00,,,0.00,Rainwise IP-100,2013-09-27 05:46:00,
2013-09-27 01:51:00,53.9,52.0,30.12,NNW,337,0.0,4.0,93,0.00,,,0.00,Rainwise IP-100,2013-09-27 05:51:00,
2013-09-27 01:56:00,54.0,52.0,30.12,NNW,337,3.7,5.0,92,0.00,,,0.00,Rainwise IP-100,2013-09-27 05:56:00,
2013-09-27 02:01:00,54.2,51.0,30.12,NNE,22,2.8,6.0,91,0.00,,,0.00,Rainwise IP-100,2013-09-27 06:01:00,
2013-09-27 02:06:00,54.3,51.0,30.13,NNE,22,2.8,5.0,91,0.00,,,0.00,Rainwise IP-100,2013-09-27 06:06:00,
2013-09-27 02:11:00,54.4,52.0,30.12,NNE,22,1.9,5.0,91,0.00,,,0.00,Rainwise IP-100,2013-09-27 06:11:00,
2013-09-27 02:16:00,54.4,52.0,30.12,North,360,3.3,5.0,91,0.00,,,0.00,Rainwise IP-100,2013-09-27 06:16:00,
2013-09-27 02:21:00,54.5,52.0,30.12,NNW,337,2.6,6.0,90,0.00,,,0.00,Rainwise IP-100,2013-09-27 06:21:00,
2013-09-27 02:26:00,54.6,52.0,30.12,North,360,3.0,7.0,90,0.00,,,0.00,Rainwise IP-100,2013-09-27 06:26:00,
2013-09-27 02:31:00,54.6,52.0,30.12,NNW,337,1.9,5.0,90,0.00,,,0.00,Rainwise IP-100,2013-09-27 06:31:00,
2013-09-27 02:36:00,54.6,52.0,30.12,NNW,337,6.1,6.1,90,0.00,,,0.00,Rainwise IP-100,2013-09-27 06:36:00,
2013-09-27 02:41:00,54.6,52.0,30.12,North,360,2.6,6.0,90,0.00,,,0.00,Rainwise IP-100,2013-09-27 06:41:00,
2013-09-27 02:46:00,54.6,52.0,30.12,North,360,3.3,5.0,90,0.00,,,0.00,Rainwise IP-100,2013-09-27 06:46:00,
2013-09-27 02:51:00,54.7,52.0,30.12,NNW,337,2.1,7.0,90,0.00,,,0.00,Rainwise IP-100,2013-09-27 06:51:00,
2013-09-27 02:56:00,54.7,52.0,30.12,NNW,337,3.0,5.0,90,0.00,,,0.00,Rainwise IP-100,2013-09-27 06:56:00,
2013-09-27 03:01:00,54.7,52.0,30.12,ENE,67,2.8,5.0,90,0.00,,,0.00,Rainwise IP-100,2013-09-27 07:01:00,
2013-09-27 03:06:00,54.5,52.0,30.12,NNW,337,1.2,5.0,91,0.00,,,0.00,Rainwise IP-100,2013-09-27 07:06:00,
2013-09-27 03:11:00,54.5,52.0,30.12,NNE,22,1.6,6.0,91,0.00,,,0.00,Rainwise IP-100,2013-09-27 07:11:00,
2013-09-27 03:16:00,54.5,52.0,30.12,NE,45,0.0,5.0,91,0.00,,,0.00,Rainwise IP-100,2013-09-27 07:16:00,
2013-09-27 03:21:00,54.5,53.0,30.12,NNW,337,0.0,4.0,92,0.00,,,0.00,Rainwise IP-100,2013-09-27 07:21:00,
2013-09-27 03:26:00,54.5,53.0,30.12,NNW,337,0.0,6.0,92,0.00,,,0.00,Rainwise IP-100,2013-09-27 07:26:00,
2013-09-27 03:31:00,54.5,53.0,30.13,NNE,22,0.0,3.0,92,0.00,,,0.00,Rainwise IP-100,2013-09-27 07:31:00,
2013-09-27 03:36:00,54.4,53.0,30.12,NNW,337,1.9,3.0,92,0.00,,,0.00,Rainwise IP-100,2013-09-27 07:36:00,
2013-09-27 03:41:00,54.4,53.0,30.13,North,360,2.1,3.0,93,0.00,,,0.00,Rainwise IP-100,2013-09-27 07:41:00,
2013-09-27 03:46:00,54.4,53.0,30.13,NNW,337,2.3,5.0,93,0.00,,,0.00,Rainwise IP-100,2013-09-27 07:46:00,
2013-09-27 03:51:00,54.4,53.0,30.13,North,360,2.6,4.0,93,0.00,,,0.00,Rainwise IP-100,2013-09-27 07:51:00,
2013-09-27 03:56:00,54.5,53.0,30.13,NNW,337,0.0,4.0,93,0.00,,,0.00,Rainwise IP-100,2013-09-27 07:56:00,
2013-09-27 04:01:00,54.5,53.0,30.12,NNE,22,0.0,4.0,93,0.00,,,0.00,Rainwise IP-100,2013-09-27 08:01:00,
2013-09-27 04:06:00,54.6,53.0,30.13,NNE,22,0.0,4.0,93,0.00,,,0.00,Rainwise IP-100,2013-09-27 08:06:00,
2013-09-27 04:11:00,54.6,53.0,30.13,North,360,3.3,5.0,94,0.00,,,0.00,Rainwise IP-100,2013-09-27 08:11:00,
2013-09-27 04:16:00,54.6,53.0,30.13,North,360,4.4,4.4,94,0.00,,,0.00,Rainwise IP-100,2013-09-27 08:16:00,
2013-09-27 04:21:00,54.6,53.0,30.13,North,360,3.5,5.0,94,0.00,,,0.00,Rainwise IP-100,2013-09-27 08:21:00,
2013-09-27 04:26:00,54.7,53.0,30.14,NNW,337,2.1,7.0,94,0.00,,,0.00,Rainwise IP-100,2013-09-27 08:26:00,
2013-09-27 04:31:00,54.7,53.0,30.13,NNW,337,0.0,3.0,94,0.00,,,0.00,Rainwise IP-100,2013-09-27 08:31:00,
2013-09-27 04:36:00,54.7,53.0,30.13,NNE,22,2.6,4.0,94,0.00,,,0.00,Rainwise IP-100,2013-09-27 08:36:00,
2013-09-27 04:41:00,54.7,53.0,30.14,NNW,337,3.3,5.0,94,0.00,,,0.00,Rainwise IP-100,2013-09-27 08:41:00,
2013-09-27 04:46:00,54.7,53.0,30.14,NNW,337,2.6,7.0,94,0.00,,,0.00,Rainwise IP-100,2013-09-27 08:46:00,
2013-09-27 04:51:00,54.7,53.0,30.14,NNW,337,2.3,5.0,94,0.00,,,0.00,Rainwise IP-100,2013-09-27 08:51:00,
2013-09-27 04:56:00,54.8,53.0,30.14,NNW,337,3.7,6.0,94,0.00,,,0.00,Rainwise IP-100,2013-09-27 08:56:00,
2013-09-27 05:01:00,54.8,53.0,30.14,NW,315,0.0,6.0,94,0.00,,,0.00,Rainwise IP-100,2013-09-27 09:01:00,
2013-09-27 05:06:00,54.8,53.0,30.14,NNW,337,0.0,2.0,94,0.00,,,0.00,Rainwise IP-100,2013-09-27 09:06:00,
2013-09-27 05:11:00,54.7,53.0,30.14,NNW,337,2.6,2.6,94,0.00,,,0.00,Rainwise IP-100,2013-09-27 09:11:00,
2013-09-27 05:16:00,54.7,53.0,30.14,NNE,22,1.6,4.0,95,0.00,,,0.00,Rainwise IP-100,2013-09-27 09:16:00,
2013-09-27 05:21:00,54.8,53.0,30.14,North,360,2.6,7.0,95,0.00,,,0.00,Rainwise IP-100,2013-09-27 09:21:00,
2013-09-27 05:26:00,55.1,53.0,30.14,NNW,337,2.3,5.0,94,0.00,,,0.00,Rainwise IP-100,2013-09-27 09:26:00,
2013-09-27 05:31:00,55.3,53.0,30.14,NNW,337,1.4,9.0,94,0.00,,,0.00,Rainwise IP-100,2013-09-27 09:31:00,
2013-09-27 05:36:00,55.3,53.0,30.14,NNW,337,3.0,4.0,94,0.00,,,0.00,Rainwise IP-100,2013-09-27 09:36:00,
2013-09-27 05:41:00,55.3,53.0,30.15,North,360,0.0,5.0,94,0.00,,,0.00,Rainwise IP-100,2013-09-27 09:41:00,
2013-09-27 05:46:00,55.3,53.0,30.14,North,360,1.2,4.0,94,0.00,,,0.00,Rainwise IP-100,2013-09-27 09:46:00,
2013-09-27 05:51:00,55.3,53.0,30.15,NNW,337,2.8,4.0,94,0.00,,,0.00,Rainwise IP-100,2013-09-27 09:51:00,
2013-09-27 05:56:00,55.2,53.0,30.15,North,360,5.4,5.4,94,0.00,,,0.00,Rainwise IP-100,2013-09-27 09:56:00,
2013-09-27 06:01:00,55.2,53.0,30.15,NNW,337,1.2,5.0,94,0.00,,,0.00,Rainwise IP-100,2013-09-27 10:01:00,
2013-09-27 06:06:00,55.1,53.0,30.15,North,360,2.1,6.0,94,0.00,,,0.00,Rainwise IP-100,2013-09-27 10:06:00,
2013-09-27 06:11:00,55.1,53.0,30.15,North,360,1.6,5.0,94,0.00,,,0.00,Rainwise IP-100,2013-09-27 10:11:00,
2013-09-27 06:16:00,55.2,53.0,30.16,NNE,22,5.1,5.1,94,0.00,,,0.00,Rainwise IP-100,2013-09-27 10:16:00,
2013-09-27 06:21:00,55.1,53.0,30.16,NNW,337,1.9,5.0,94,0.00,,,0.00,Rainwise IP-100,2013-09-27 10:21:00,
2013-09-27 06:26:00,55.1,53.0,30.16,NW,315,2.6,6.0,94,0.00,,,0.00,Rainwise IP-100,2013-09-27 10:26:00,
2013-09-27 06:31:00,55.1,53.0,30.15,WNW,292,3.3,6.0,94,0.00,,,0.00,Rainwise IP-100,2013-09-27 10:31:00,
2013-09-27 06:36:00,55.2,53.0,30.16,NNW,337,2.8,5.0,94,0.00,,,0.00,Rainwise IP-100,2013-09-27 10:36:00,
2013-09-27 06:41:00,55.1,53.0,30.16,NNW,337,2.8,5.0,94,0.00,,,0.00,Rainwise IP-100,2013-09-27 10:41:00,
2013-09-27 06:46:00,55.1,53.0,30.17,North,360,3.0,6.0,94,0.00,,,0.00,Rainwise IP-100,2013-09-27 10:46:00,
2013-09-27 06:51:00,55.1,53.0,30.16,North,360,3.7,7.0,94,0.00,,,0.00,Rainwise IP-100,2013-09-27 10:51:00,
2013-09-27 06:56:00,55.1,53.0,30.16,North,360,3.5,7.0,94,0.00,,,0.00,Rainwise IP-100,2013-09-27 10:56:00,
2013-09-27 07:01:00,55.1,53.0,30.17,North,360,5.4,5.4,94,0.00,,,0.00,Rainwise IP-100,2013-09-27 11:01:00,
2013-09-27 07:06:00,55.2,53.0,30.17,NNW,337,1.2,7.0,94,0.00,,,0.00,Rainwise IP-100,2013-09-27 11:06:00,
2013-09-27 07:11:00,55.3,53.0,30.17,North,360,1.6,4.0,93,0.00,,,0.00,Rainwise IP-100,2013-09-27 11:11:00,
2013-09-27 07:16:00,55.3,53.0,30.17,NNW,337,3.7,7.0,93,0.00,,,0.00,Rainwise IP-100,2013-09-27 11:16:00,
2013-09-27 07:21:00,55.4,53.0,30.17,NW,315,4.2,6.0,93,0.00,,,0.00,Rainwise IP-100,2013-09-27 11:21:00,
2013-09-27 07:26:00,55.4,53.0,30.17,North,360,7.0,7.0,93,0.00,,,0.00,Rainwise IP-100,2013-09-27 11:26:00,
2013-09-27 07:31:00,55.4,53.0,30.17,NNW,337,3.5,7.0,93,0.00,,,0.00,Rainwise IP-100,2013-09-27 11:31:00,
2013-09-27 07:36:00,55.4,53.0,30.18,North,360,4.0,6.0,93,0.00,,,0.00,Rainwise IP-100,2013-09-27 11:36:00,
2013-09-27 07:41:00,55.4,53.0,30.18,NNW,337,4.7,6.0,92,0.00,,,0.00,Rainwise IP-100,2013-09-27 11:41:00,
2013-09-27 07:46:00,55.5,53.0,30.18,North,360,4.4,7.0,92,0.00,,,0.00,Rainwise IP-100,2013-09-27 11:46:00,
2013-09-27 07:51:00,55.6,53.0,30.19,NNW,337,1.9,7.0,92,0.00,,,0.00,Rainwise IP-100,2013-09-27 11:51:00,
2013-09-27 07:56:00,55.6,53.0,30.18,NNW,337,3.3,7.0,92,0.00,,,0.00,Rainwise IP-100,2013-09-27 11:56:00,
2013-09-27 08:01:00,55.7,53.0,30.18,NNE,22,4.9,6.0,91,0.00,,,0.00,Rainwise IP-100,2013-09-27 12:01:00,
2013-09-27 08:06:00,55.8,53.0,30.19,North,360,3.3,6.0,91,0.00,,,0.00,Rainwise IP-100,2013-09-27 12:06:00,
2013-09-27 08:11:00,56.0,53.0,30.18,NNW,337,1.4,6.0,91,0.00,,,0.00,Rainwise IP-100,2013-09-27 12:11:00,
2013-09-27 08:16:00,56.1,53.0,30.19,NNE,22,1.9,7.0,90,0.00,,,0.00,Rainwise IP-100,2013-09-27 12:16:00,
2013-09-27 08:21:00,56.2,53.0,30.19,NNW,337,2.3,10.0,90,0.00,,,0.00,Rainwise IP-100,2013-09-27 12:21:00,
2013-09-27 08:26:00,56.2,53.0,30.19,North,360,3.7,5.0,90,0.00,,,0.00,Rainwise IP-100,2013-09-27 12:26:00,
2013-09-27 08:31:00,56.3,53.0,30.19,North,360,4.7,8.0,89,0.00,,,0.00,Rainwise IP-100,2013-09-27 12:31:00,
2013-09-27 08:36:00,56.4,53.0,30.19,NNW,337,4.4,6.0,89,0.00,,,0.00,Rainwise IP-100,2013-09-27 12:36:00,
2013-09-27 08:41:00,56.5,53.0,30.20,North,360,0.0,7.0,89,0.00,,,0.00,Rainwise IP-100,2013-09-27 12:41:00,
2013-09-27 08:46:00,56.6,53.0,30.20,NNW,337,5.1,7.0,89,0.00,,,0.00,Rainwise IP-100,2013-09-27 12:46:00,
2013-09-27 08:51:00,56.7,53.0,30.20,NE,45,2.3,7.0,89,0.00,,,0.00,Rainwise IP-100,2013-09-27 12:51:00,
2013-09-27 08:56:00,56.8,53.0,30.20,ENE,67,1.2,7.0,89,0.00,,,0.00,Rainwise IP-100,2013-09-27 12:56:00,
2013-09-27 09:01:00,57.0,54.0,30.20,North,360,2.3,7.0,89,0.00,,,0.00,Rainwise IP-100,2013-09-27 13:01:00,
2013-09-27 09:06:00,57.1,53.0,30.20,NNE,22,3.3,10.0,88,0.00,,,0.00,Rainwise IP-100,2013-09-27 13:06:00,
2013-09-27 09:11:00,57.2,53.0,30.20,North,360,1.9,7.0,88,0.00,,,0.00,Rainwise IP-100,2013-09-27 13:11:00,
2013-09-27 09:16:00,57.4,54.0,30.20,North,360,2.1,7.0,88,0.00,,,0.00,Rainwise IP-100,2013-09-27 13:16:00,
2013-09-27 09:21:00,57.5,54.0,30.21,NNE,22,3.3,7.0,88,0.00,,,0.00,Rainwise IP-100,2013-09-27 13:21:00,
2013-09-27 09:26:00,57.7,54.0,30.21,NNW,337,3.7,6.0,87,0.00,,,0.00,Rainwise IP-100,2013-09-27 13:26:00,
2013-09-27 09:31:00,57.8,54.0,30.21,NNW,337,2.3,11.0,87,0.00,,,0.00,Rainwise IP-100,2013-09-27 13:31:00,
2013-09-27 09:36:00,58.1,54.0,30.20,NW,315,9.6,11.0,87,0.00,,,0.00,Rainwise IP-100,2013-09-27 13:36:00,
2013-09-27 09:41:00,58.5,54.0,30.21,NW,315,3.0,9.0,86,0.00,,,0.00,Rainwise IP-100,2013-09-27 13:41:00,
2013-09-27 09:46:00,58.8,54.0,30.21,NNW,337,5.1,8.0,86,0.00,,,0.00,Rainwise IP-100,2013-09-27 13:46:00,
2013-09-27 09:51:00,59.0,54.0,30.21,NW,315,4.2,9.0,85,0.00,,,0.00,Rainwise IP-100,2013-09-27 13:51:00,
2013-09-27 09:52:00,59.1,54.0,30.21,ENE,67,3.0,7.0,85,0.00,,,0.00,Rainwise IP-100,2013-09-27 13:52:00,
2013-09-27 09:57:00,59.4,54.0,30.21,NNW,337,8.4,10.0,84,0.00,,,0.00,Rainwise IP-100,2013-09-27 13:57:00,
2013-09-27 10:02:00,59.8,54.0,30.21,North,360,3.3,14.0,84,0.00,,,0.00,Rainwise IP-100,2013-09-27 14:02:00,
2013-09-27 10:07:00,60.0,54.0,30.21,NNW,337,5.1,7.0,83,0.00,,,0.00,Rainwise IP-100,2013-09-27 14:07:00,
2013-09-27 10:12:00,60.3,54.0,30.21,NNW,337,5.4,8.0,83,0.00,,,0.00,Rainwise IP-100,2013-09-27 14:12:00,
2013-09-27 10:17:00,60.5,54.0,30.21,ENE,67,3.0,13.0,82,0.00,,,0.00,Rainwise IP-100,2013-09-27 14:17:00,
2013-09-27 10:22:00,60.5,54.0,30.21,NNE,22,0.0,7.0,82,0.00,,,0.00,Rainwise IP-100,2013-09-27 14:22:00,
2013-09-27 10:27:00,60.5,54.0,30.21,NNW,337,0.0,4.0,82,0.00,,,0.00,Rainwise IP-100,2013-09-27 14:27:00,
2013-09-27 10:32:00,60.6,55.0,30.21,NNW,337,0.0,6.0,83,0.00,,,0.00,Rainwise IP-100,2013-09-27 14:32:00,
2013-09-27 10:37:00,60.6,55.0,30.21,NNW,337,4.0,7.0,83,0.00,,,0.00,Rainwise IP-100,2013-09-27 14:37:00,
2013-09-27 10:42:00,60.6,54.0,30.20,ENE,67,3.0,11.0,82,0.00,,,0.00,Rainwise IP-100,2013-09-27 14:42:00,
2013-09-27 10:47:00,60.9,55.0,30.21,SSW,202,3.5,12.0,82,0.00,,,0.00,Rainwise IP-100,2013-09-27 14:47:00,
2013-09-27 10:52:00,61.2,55.0,30.21,West,270,2.6,7.0,82,0.00,,,0.00,Rainwise IP-100,2013-09-27 14:52:00,
2013-09-27 10:57:00,61.7,56.0,30.21,NW,315,4.4,6.0,81,0.00,,,0.00,Rainwise IP-100,2013-09-27 14:57:00,
2013-09-27 11:02:00,62.6,56.0,30.20,WNW,292,0.0,7.0,80,0.00,,,0.00,Rainwise IP-100,2013-09-27 15:02:00,
2013-09-27 11:07:00,63.8,57.0,30.20,NNW,337,5.6,5.6,79,0.00,,,0.00,Rainwise IP-100,2013-09-27 15:07:00,
2013-09-27 11:12:00,64.1,56.0,30.21,NE,45,3.0,8.0,77,0.00,,,0.00,Rainwise IP-100,2013-09-27 15:12:00,
2013-09-27 11:17:00,63.1,55.0,30.20,WNW,292,6.5,9.0,76,0.00,,,0.00,Rainwise IP-100,2013-09-27 15:17:00,
2013-09-27 11:22:00,62.6,54.0,30.20,North,360,5.1,14.0,76,0.00,,,0.00,Rainwise IP-100,2013-09-27 15:22:00,
2013-09-27 11:27:00,63.0,56.0,30.20,NNW,337,10.0,10.0,77,0.00,,,0.00,Rainwise IP-100,2013-09-27 15:27:00,
2013-09-27 11:32:00,63.3,55.0,30.20,North,360,6.5,10.0,76,0.00,,,0.00,Rainwise IP-100,2013-09-27 15:32:00,
2013-09-27 11:37:00,62.8,54.0,30.20,North,360,4.9,9.0,76,0.00,,,0.00,Rainwise IP-100,2013-09-27 15:37:00,
2013-09-27 11:42:00,62.8,55.0,30.20,SSW,202,1.9,9.0,77,0.00,,,0.00,Rainwise IP-100,2013-09-27 15:42:00,
2013-09-27 11:47:00,63.1,56.0,30.20,ENE,67,1.4,8.0,77,0.00,,,0.00,Rainwise IP-100,2013-09-27 15:47:00,
2013-09-27 11:52:00,63.0,55.0,30.20,NE,45,2.6,11.0,75,0.00,,,0.00,Rainwise IP-100,2013-09-27 15:52:00,
2013-09-27 11:57:00,63.0,55.0,30.21,West,270,6.8,7.0,75,0.00,,,0.00,Rainwise IP-100,2013-09-27 15:57:00,
2013-09-27 12:02:00,63.2,55.0,30.20,NNW,337,8.2,8.2,76,0.00,,,0.00,Rainwise IP-100,2013-09-27 16:02:00,
2013-09-27 12:07:00,63.7,55.0,30.20,North,360,8.2,10.0,75,0.00,,,0.00,Rainwise IP-100,2013-09-27 16:07:00,
2013-09-27 12:12:00,63.7,54.0,30.20,NE,45,2.6,9.0,73,0.00,,,0.00,Rainwise IP-100,2013-09-27 16:12:00,
2013-09-27 12:17:00,63.3,54.0,30.20,NE,45,3.3,12.0,73,0.00,,,0.00,Rainwise IP-100,2013-09-27 16:17:00,
2013-09-27 12:22:00,62.9,54.0,30.21,ENE,67,3.0,8.0,73,0.00,,,0.00,Rainwise IP-100,2013-09-27 16:22:00,
2013-09-27 12:27:00,62.8,54.0,30.21,WNW,292,4.7,7.0,74,0.00,,,0.00,Rainwise IP-100,2013-09-27 16:27:00,
2013-09-27 12:32:00,62.8,54.0,30.21,NNE,22,4.0,8.0,74,0.00,,,0.00,Rainwise IP-100,2013-09-27 16:32:00,
2013-09-27 12:37:00,63.2,54.0,30.20,NNE,22,3.3,7.0,74,0.00,,,0.00,Rainwise IP-100,2013-09-27 16:37:00,
2013-09-27 12:42:00,63.5,55.0,30.20,South,180,0.0,5.0,75,0.00,,,0.00,Rainwise IP-100,2013-09-27 16:42:00,
2013-09-27 12:47:00,63.4,55.0,30.20,NE,45,6.5,7.0,75,0.00,,,0.00,Rainwise IP-100,2013-09-27 16:47:00,
2013-09-27 12:52:00,62.8,54.0,30.20,NNE,22,2.6,11.0,75,0.00,,,0.00,Rainwise IP-100,2013-09-27 16:52:00,
2013-09-27 12:57:00,62.5,54.0,30.20,North,360,3.7,7.0,75,0.00,,,0.00,Rainwise IP-100,2013-09-27 16:57:00,
2013-09-27 13:02:00,62.5,55.0,30.20,SSW,202,0.0,6.0,77,0.00,,,0.00,Rainwise IP-100,2013-09-27 17:02:00,
2013-09-27 13:07:00,62.8,55.0,30.20,NNE,22,0.0,5.0,77,0.00,,,0.00,Rainwise IP-100,2013-09-27 17:07:00,
2013-09-27 13:12:00,63.2,55.0,30.20,NNW,337,2.3,6.0,76,0.00,,,0.00,Rainwise IP-100,2013-09-27 17:12:00,
2013-09-27 13:17:00,63.2,55.0,30.20,South,180,3.5,13.0,76,0.00,,,0.00,Rainwise IP-100,2013-09-27 17:17:00,
2013-09-27 13:22:00,63.1,55.0,30.20,WNW,292,4.0,9.0,76,0.00,,,0.00,Rainwise IP-100,2013-09-27 17:22:00,
2013-09-27 13:27:00,63.4,56.0,30.20,ENE,67,3.3,9.0,76,0.00,,,0.00,Rainwise IP-100,2013-09-27 17:27:00,
2013-09-27 13:32:00,64.1,56.0,30.19,NNW,337,1.9,14.0,75,0.00,,,0.00,Rainwise IP-100,2013-09-27 17:32:00,
2013-09-27 13:37:00,64.5,56.0,30.19,NNW,337,3.0,9.0,74,0.00,,,0.00,Rainwise IP-100,2013-09-27 17:37:00,
2013-09-27 13:42:00,64.2,56.0,30.19,North,360,2.6,7.0,75,0.00,,,0.00,Rainwise IP-100,2013-09-27 17:42:00,
2013-09-27 13:47:00,63.9,56.0,30.19,NNW,337,4.2,9.0,75,0.00,,,0.00,Rainwise IP-100,2013-09-27 17:47:00,
2013-09-27 13:52:00,63.8,55.0,30.19,NNE,22,4.2,7.0,75,0.00,,,0.00,Rainwise IP-100,2013-09-27 17:52:00,
2013-09-27 13:57:00,64.0,56.0,30.19,NNE,22,5.4,5.4,75,0.00,,,0.00,Rainwise IP-100,2013-09-27 17:57:00,
2013-09-27 14:02:00,64.1,55.0,30.19,NNW,337,3.7,7.0,74,0.00,,,0.00,Rainwise IP-100,2013-09-27 18:02:00,
2013-09-27 14:07:00,63.8,55.0,30.19,NNW,337,3.3,7.0,74,0.00,,,0.00,Rainwise IP-100,2013-09-27 18:07:00,
2013-09-27 14:12:00,63.7,55.0,30.19,NNW,337,7.0,10.0,74,0.00,,,0.00,Rainwise IP-100,2013-09-27 18:12:00,
2013-09-27 14:17:00,63.5,55.0,30.19,NNW,337,0.0,11.0,74,0.00,,,0.00,Rainwise IP-100,2013-09-27 18:17:00,
2013-09-27 14:22:00,63.2,54.0,30.19,NNW,337,6.5,6.5,74,0.00,,,0.00,Rainwise IP-100,2013-09-27 18:22:00,
2013-09-27 14:27:00,63.2,55.0,30.19,WSW,247,1.9,11.0,75,0.00,,,0.00,Rainwise IP-100,2013-09-27 18:27:00,
2013-09-27 14:32:00,63.0,55.0,30.19,North,360,3.7,7.0,75,0.00,,,0.00,Rainwise IP-100,2013-09-27 18:32:00,
2013-09-27 14:37:00,63.1,55.0,30.19,NNW,337,7.5,10.0,75,0.00,,,0.00,Rainwise IP-100,2013-09-27 18:37:00,
2013-09-27 14:42:00,64.4,56.0,30.18,NNW,337,1.9,10.0,74,0.00,,,0.00,Rainwise IP-100,2013-09-27 18:42:00,
2013-09-27 14:47:00,64.8,55.0,30.19,NNW,337,5.4,11.0,72,0.00,,,0.00,Rainwise IP-100,2013-09-27 18:47:00,
2013-09-27 14:52:00,64.0,54.0,30.18,NW,315,3.3,12.0,71,0.00,,,0.00,Rainwise IP-100,2013-09-27 18:52:00,
2013-09-27 14:57:00,63.6,54.0,30.18,NE,45,1.2,9.0,72,0.00,,,0.00,Rainwise IP-100,2013-09-27 18:57:00,
2013-09-27 15:02:00,63.6,54.0,30.18,NNW,337,4.9,9.0,72,0.00,,,0.00,Rainwise IP-100,2013-09-27 19:02:00,
2013-09-27 15:07:00,63.7,54.0,30.18,NNE,22,2.6,8.0,73,0.00,,,0.00,Rainwise IP-100,2013-09-27 19:07:00,
2013-09-27 15:12:00,63.5,54.0,30.18,ENE,67,2.6,10.0,73,0.00,,,0.00,Rainwise IP-100,2013-09-27 19:12:00,
2013-09-27 15:17:00,63.1,54.0,30.18,North,360,3.5,8.0,74,0.00,,,0.00,Rainwise IP-100,2013-09-27 19:17:00,
2013-09-27 15:22:00,63.7,54.0,30.17,NNW,337,4.7,13.0,73,0.00,,,0.00,Rainwise IP-100,2013-09-27 19:22:00,
2013-09-27 15:27:00,64.7,54.0,30.18,NW,315,0.0,15.0,71,0.00,,,0.00,Rainwise IP-100,2013-09-27 19:27:00,
2013-09-27 15:32:00,64.9,54.0,30.18,NNW,337,5.8,15.0,69,0.00,,,0.00,Rainwise IP-100,2013-09-27 19:32:00,
2013-09-27 15:37:00,64.5,54.0,30.18,NNE,22,8.2,8.2,70,0.00,,,0.00,Rainwise IP-100,2013-09-27 19:37:00,
2013-09-27 15:42:00,64.0,54.0,30.18,ENE,67,8.2,10.0,70,0.00,,,0.00,Rainwise IP-100,2013-09-27 19:42:00,
2013-09-27 15:47:00,64.2,54.0,30.17,North,360,4.0,11.0,70,0.00,,,0.00,Rainwise IP-100,2013-09-27 19:47:00,
2013-09-27 15:52:00,64.9,54.0,30.18,NNW,337,1.6,13.0,69,0.00,,,0.00,Rainwise IP-100,2013-09-27 19:52:00,
2013-09-27 15:57:00,64.7,54.0,30.18,NNW,337,4.2,10.0,69,0.00,,,0.00,Rainwise IP-100,2013-09-27 19:57:00,
2013-09-27 16:02:00,64.3,54.0,30.19,North,360,3.3,10.0,70,0.00,,,0.00,Rainwise IP-100,2013-09-27 20:02:00,
2013-09-27 16:07:00,64.6,54.0,30.19,NE,45,3.0,10.0,71,0.00,,,0.00,Rainwise IP-100,2013-09-27 20:07:00,
2013-09-27 16:12:00,65.1,54.0,30.18,NNW,337,4.0,10.0,70,0.00,,,0.00,Rainwise IP-100,2013-09-27 20:12:00,
2013-09-27 16:17:00,65.1,54.0,30.19,WNW,292,4.0,10.0,69,0.00,,,0.00,Rainwise IP-100,2013-09-27 20:17:00,
2013-09-27 16:22:00,65.1,54.0,30.18,NNE,22,0.0,8.0,69,0.00,,,0.00,Rainwise IP-100,2013-09-27 20:22:00,
2013-09-27 16:27:00,65.0,54.0,30.18,NW,315,2.3,9.0,69,0.00,,,0.00,Rainwise IP-100,2013-09-27 20:27:00,
2013-09-27 16:32:00,64.6,53.0,30.19,NNW,337,3.0,10.0,68,0.00,,,0.00,Rainwise IP-100,2013-09-27 20:32:00,
2013-09-27 16:37:00,64.4,53.0,30.19,NE,45,0.0,9.0,67,0.00,,,0.00,Rainwise IP-100,2013-09-27 20:37:00,
2013-09-27 16:42:00,64.2,53.0,30.19,North,360,2.8,6.0,68,0.00,,,0.00,Rainwise IP-100,2013-09-27 20:42:00,
2013-09-27 16:47:00,64.2,53.0,30.19,West,270,1.6,6.0,67,0.00,,,0.00,Rainwise IP-100,2013-09-27 20:47:00,
2013-09-27 16:52:00,64.1,53.0,30.19,ENE,67,4.2,6.0,67,0.00,,,0.00,Rainwise IP-100,2013-09-27 20:52:00,
2013-09-27 16:57:00,63.8,53.0,30.19,NNE,22,4.9,7.0,68,0.00,,,0.00,Rainwise IP-100,2013-09-27 20:57:00,
2013-09-27 17:02:00,63.7,53.0,30.19,NW,315,3.3,4.0,68,0.00,,,0.00,Rainwise IP-100,2013-09-27 21:02:00,
2013-09-27 17:07:00,63.5,53.0,30.19,NNW,337,4.2,7.0,68,0.00,,,0.00,Rainwise IP-100,2013-09-27 21:07:00,
2013-09-27 17:12:00,63.5,53.0,30.19,NNW,337,0.0,5.0,67,0.00,,,0.00,Rainwise IP-100,2013-09-27 21:12:00,
2013-09-27 17:17:00,63.4,53.0,30.20,NNW,337,1.9,5.0,67,0.00,,,0.00,Rainwise IP-100,2013-09-27 21:17:00,
2013-09-27 17:22:00,63.3,52.0,30.20,NE,45,3.5,4.0,67,0.00,,,0.00,Rainwise IP-100,2013-09-27 21:22:00,
2013-09-27 17:27:00,63.2,52.0,30.20,NE,45,1.9,6.0,67,0.00,,,0.00,Rainwise IP-100,2013-09-27 21:27:00,
2013-09-27 17:32:00,63.0,52.0,30.20,ENE,67,3.3,3.3,68,0.00,,,0.00,Rainwise IP-100,2013-09-27 21:32:00,
2013-09-27 17:37:00,62.4,52.0,30.20,NNW,337,2.8,9.0,69,0.00,,,0.00,Rainwise IP-100,2013-09-27 21:37:00,
2013-09-27 17:42:00,62.0,51.0,30.20,North,360,1.9,6.0,68,0.00,,,0.00,Rainwise IP-100,2013-09-27 21:42:00,
2013-09-27 17:47:00,62.0,52.0,30.21,ENE,67,0.0,3.0,69,0.00,,,0.00,Rainwise IP-100,2013-09-27 21:47:00,
2013-09-27 17:52:00,61.9,52.0,30.21,NNW,337,2.3,4.0,69,0.00,,,0.00,Rainwise IP-100,2013-09-27 21:52:00,
2013-09-27 17:57:00,61.8,51.0,30.21,North,360,0.0,4.0,69,0.00,,,0.00,Rainwise IP-100,2013-09-27 21:57:00,
2013-09-27 18:02:00,61.4,51.0,30.21,NNW,337,1.4,3.0,69,0.00,,,0.00,Rainwise IP-100,2013-09-27 22:02:00,
2013-09-27 18:07:00,60.6,50.0,30.21,NNW,337,0.0,4.0,69,0.00,,,0.00,Rainwise IP-100,2013-09-27 22:07:00,
2013-09-27 18:12:00,59.6,50.0,30.21,North,360,1.6,4.0,71,0.00,,,0.00,Rainwise IP-100,2013-09-27 22:12:00,
2013-09-27 18:17:00,58.7,50.0,30.21,NNE,22,0.0,4.0,73,0.00,,,0.00,Rainwise IP-100,2013-09-27 22:17:00,
2013-09-27 18:22:00,58.1,50.0,30.21,NNE,22,1.6,2.0,74,0.00,,,0.00,Rainwise IP-100,2013-09-27 22:22:00,
2013-09-27 18:27:00,57.4,50.0,30.21,NNE,22,1.6,2.0,76,0.00,,,0.00,Rainwise IP-100,2013-09-27 22:27:00,
2013-09-27 18:32:00,56.7,50.0,30.21,NNE,22,1.4,2.0,78,0.00,,,0.00,Rainwise IP-100,2013-09-27 22:32:00,
2013-09-27 18:37:00,56.0,50.0,30.21,NNE,22,0.0,1.0,79,0.00,,,0.00,Rainwise IP-100,2013-09-27 22:37:00,
2013-09-27 18:42:00,55.4,50.0,30.21,NNE,22,0.0,1.0,81,0.00,,,0.00,Rainwise IP-100,2013-09-27 22:42:00,
2013-09-27 18:47:00,54.8,50.0,30.22,NNE,22,0.0,1.0,83,0.00,,,0.00,Rainwise IP-100,2013-09-27 22:47:00,
2013-09-27 18:52:00,54.4,50.0,30.22,NNE,22,0.0,1.0,84,0.00,,,0.00,Rainwise IP-100,2013-09-27 22:52:00,
2013-09-27 18:57:00,54.0,50.0,30.21,NNE,22,1.2,1.2,85,0.00,,,0.00,Rainwise IP-100,2013-09-27 22:57:00,
2013-09-27 19:02:00,53.5,49.0,30.22,NNE,22,1.4,1.4,86,0.00,,,0.00,Rainwise IP-100,2013-09-27 23:02:00,
2013-09-27 19:07:00,53.1,49.0,30.22,NNE,22,0.0,1.0,87,0.00,,,0.00,Rainwise IP-100,2013-09-27 23:07:00,
2013-09-27 19:12:00,52.7,49.0,30.23,NNE,22,0.0,1.0,88,0.00,,,0.00,Rainwise IP-100,2013-09-27 23:12:00,
2013-09-27 19:17:00,52.4,48.0,30.22,NNE,22,0.0,1.0,88,0.00,,,0.00,Rainwise IP-100,2013-09-27 23:17:00,
2013-09-27 19:22:00,52.2,49.0,30.22,NNE,22,0.0,1.0,89,0.00,,,0.00,Rainwise IP-100,2013-09-27 23:22:00,
2013-09-27 19:27:00,52.0,49.0,30.23,NNE,22,0.0,2.0,90,0.00,,,0.00,Rainwise IP-100,2013-09-27 23:27:00,
2013-09-27 19:32:00,51.8,49.0,30.23,NNE,22,1.4,1.4,91,0.00,,,0.00,Rainwise IP-100,2013-09-27 23:32:00,
2013-09-27 19:37:00,51.7,49.0,30.23,NNE,22,0.0,1.0,91,0.00,,,0.00,Rainwise IP-100,2013-09-27 23:37:00,
2013-09-27 19:42:00,51.5,50.0,30.23,NNE,22,1.9,2.0,92,0.00,,,0.00,Rainwise IP-100,2013-09-27 23:42:00,
2013-09-27 19:47:00,51.3,49.0,30.23,NNE,22,1.9,2.0,92,0.00,,,0.00,Rainwise IP-100,2013-09-27 23:47:00,
2013-09-27 19:52:00,51.2,49.0,30.23,NNE,22,1.4,2.0,93,0.00,,,0.00,Rainwise IP-100,2013-09-27 23:52:00,
2013-09-27 19:57:00,51.1,49.0,30.23,NNE,22,1.6,2.0,93,0.00,,,0.00,Rainwise IP-100,2013-09-27 23:57:00,
2013-09-27 20:02:00,51.1,50.0,30.23,NNE,22,0.0,1.0,94,0.00,,,0.00,Rainwise IP-100,2013-09-28 00:02:00,
2013-09-27 20:07:00,51.1,50.0,30.24,North,360,0.0,2.0,94,0.00,,,0.00,Rainwise IP-100,2013-09-28 00:07:00,
2013-09-27 20:12:00,51.0,50.0,30.23,North,360,1.2,2.0,94,0.00,,,0.00,Rainwise IP-100,2013-09-28 00:12:00,
2013-09-27 20:17:00,50.9,50.0,30.24,North,360,0.0,2.0,94,0.00,,,0.00,Rainwise IP-100,2013-09-28 00:17:00,
2013-09-27 20:22:00,50.9,50.0,30.24,North,360,1.2,2.0,95,0.00,,,0.00,Rainwise IP-100,2013-09-28 00:22:00,
2013-09-27 20:27:00,50.9,50.0,30.24,North,360,0.0,3.0,95,0.00,,,0.00,Rainwise IP-100,2013-09-28 00:27:00,
2013-09-27 20:32:00,50.9,50.0,30.24,North,360,0.0,2.0,95,0.00,,,0.00,Rainwise IP-100,2013-09-28 00:32:00,
2013-09-27 20:37:00,50.7,49.0,30.24,North,360,0.0,0.0,95,0.00,,,0.00,Rainwise IP-100,2013-09-28 00:37:00,
2013-09-27 20:42:00,50.6,49.0,30.24,North,360,0.0,1.0,95,0.00,,,0.00,Rainwise IP-100,2013-09-28 00:42:00,
2013-09-27 20:47:00,50.6,50.0,30.24,North,360,1.2,1.2,96,0.00,,,0.00,Rainwise IP-100,2013-09-28 00:47:00,
2013-09-27 20:52:00,50.4,50.0,30.24,North,360,0.0,1.0,96,0.00,,,0.00,Rainwise IP-100,2013-09-28 00:52:00,
2013-09-27 20:57:00,50.2,49.0,30.24,North,360,2.6,2.6,96,0.00,,,0.00,Rainwise IP-100,2013-09-28 00:57:00,
2013-09-27 21:02:00,50.2,49.0,30.24,North,360,1.2,4.0,96,0.00,,,0.00,Rainwise IP-100,2013-09-28 01:02:00,
2013-09-27 21:07:00,50.3,49.0,30.25,NNE,22,1.4,3.0,96,0.00,,,0.00,Rainwise IP-100,2013-09-28 01:07:00,
2013-09-27 21:12:00,50.3,49.0,30.24,North,360,1.2,3.0,97,0.00,,,0.00,Rainwise IP-100,2013-09-28 01:12:00,
2013-09-27 21:17:00,50.5,50.0,30.25,North,360,2.1,4.0,97,0.00,,,0.00,Rainwise IP-100,2013-09-28 01:17:00,
2013-09-27 21:22:00,50.6,50.0,30.24,North,360,0.0,3.0,97,0.00,,,0.00,Rainwise IP-100,2013-09-28 01:22:00,
2013-09-27 21:27:00,50.4,50.0,30.25,North,360,1.4,2.0,97,0.00,,,0.00,Rainwise IP-100,2013-09-28 01:27:00,
2013-09-27 21:32:00,50.2,49.0,30.25,North,360,1.2,2.0,97,0.00,,,0.00,Rainwise IP-100,2013-09-28 01:32:00,
2013-09-27 21:37:00,50.0,49.0,30.25,North,360,2.1,2.1,97,0.00,,,0.00,Rainwise IP-100,2013-09-28 01:37:00,
2013-09-27 21:42:00,49.8,49.0,30.25,North,360,1.4,2.0,97,0.00,,,0.00,Rainwise IP-100,2013-09-28 01:42:00,
2013-09-27 21:47:00,49.7,49.0,30.25,North,360,0.0,2.0,97,0.00,,,0.00,Rainwise IP-100,2013-09-28 01:47:00,
2013-09-27 21:52:00,49.6,49.0,30.26,North,360,1.2,1.2,97,0.00,,,0.00,Rainwise IP-100,2013-09-28 01:52:00,
2013-09-27 21:57:00,49.4,48.0,30.26,North,360,0.0,1.0,98,0.00,,,0.00,Rainwise IP-100,2013-09-28 01:57:00,
2013-09-27 22:02:00,49.2,48.0,30.25,North,360,2.1,2.1,98,0.00,,,0.00,Rainwise IP-100,2013-09-28 02:02:00,
2013-09-27 22:07:00,49.2,48.0,30.26,North,360,1.6,2.0,98,0.00,,,0.00,Rainwise IP-100,2013-09-28 02:07:00,
2013-09-27 22:12:00,49.2,48.0,30.26,North,360,1.9,2.0,98,0.00,,,0.00,Rainwise IP-100,2013-09-28 02:12:00,
2013-09-27 22:17:00,49.2,48.0,30.26,North,360,1.9,2.0,98,0.00,,,0.00,Rainwise IP-100,2013-09-28 02:17:00,
2013-09-27 22:22:00,49.2,48.0,30.26,North,360,1.9,3.0,98,0.00,,,0.00,Rainwise IP-100,2013-09-28 02:22:00,
2013-09-27 22:27:00,49.4,48.0,30.26,North,360,2.1,4.0,98,0.00,,,0.00,Rainwise IP-100,2013-09-28 02:27:00,
2013-09-27 22:32:00,49.4,48.0,30.26,North,360,1.2,4.0,98,0.00,,,0.00,Rainwise IP-100,2013-09-28 02:32:00,
2013-09-27 22:37:00,49.4,48.0,30.26,North,360,0.0,3.0,98,0.00,,,0.00,Rainwise IP-100,2013-09-28 02:37:00,
2013-09-27 22:42:00,49.5,50.0,30.26,North,360,2.1,2.1,99,0.00,,,0.00,Rainwise IP-100,2013-09-28 02:42:00,
2013-09-27 22:47:00,49.4,49.0,30.26,North,360,1.2,2.0,99,0.00,,,0.00,Rainwise IP-100,2013-09-28 02:47:00,
2013-09-27 22:52:00,49.2,49.0,30.26,North,360,1.4,2.0,99,0.00,,,0.00,Rainwise IP-100,2013-09-28 02:52:00,
2013-09-27 22:57:00,49.2,49.0,30.26,North,360,0.0,2.0,99,0.00,,,0.00,Rainwise IP-100,2013-09-28 02:57:00,
2013-09-27 23:02:00,49.2,49.0,30.26,North,360,0.0,1.0,99,0.00,,,0.00,Rainwise IP-100,2013-09-28 03:02:00,
2013-09-27 23:07:00,48.9,49.0,30.26,North,360,1.2,1.2,99,0.00,,,0.00,Rainwise IP-100,2013-09-28 03:07:00,
2013-09-27 23:12:00,48.7,49.0,30.26,North,360,0.0,1.0,99,0.00,,,0.00,Rainwise IP-100,2013-09-28 03:12:00,
2013-09-27 23:17:00,48.7,49.0,30.26,North,360,0.0,0.0,99,0.00,,,0.00,Rainwise IP-100,2013-09-28 03:17:00,
2013-09-27 23:22:00,48.5,49.0,30.26,North,360,1.6,1.6,99,0.00,,,0.00,Rainwise IP-100,2013-09-28 03:22:00,
2013-09-27 23:27:00,48.4,48.0,30.26,North,360,2.8,2.8,99,0.00,,,0.00,Rainwise IP-100,2013-09-28 03:27:00,
2013-09-27 23:32:00,48.6,49.0,30.27,North,360,3.3,3.3,99,0.00,,,0.00,Rainwise IP-100,2013-09-28 03:32:00,
2013-09-27 23:37:00,48.6,49.0,30.27,North,360,2.1,3.0,99,0.00,,,0.00,Rainwise IP-100,2013-09-28 03:37:00,
2013-09-27 23:42:00,48.5,49.0,30.26,North,360,1.4,2.0,99,0.00,,,0.00,Rainwise IP-100,2013-09-28 03:42:00,
2013-09-27 23:47:00,48.3,48.0,30.26,North,360,1.9,2.0,99,0.00,,,0.00,Rainwise IP-100,2013-09-28 03:47:00,
2013-09-27 23:52:00,48.5,49.0,30.26,North,360,2.3,4.0,99,0.00,,,0.00,Rainwise IP-100,2013-09-28 03:52:00,
2013-09-27 23:57:00,48.8,49.0,30.26,North,360,2.1,4.0,99,0.00,,,0.00,Rainwise IP-100,2013-09-28 03:57:00,